KUIPER-00141

导读 | 豆包AI

KUIPER-00141是美国亚马逊“柯伊伯计划”(Project Kuiper)下的一颗低轨互联网卫星,于2025年10月14日发射升空。该计划旨在通过数千颗低轨卫星,为全球提供宽带互联网接入服务,与SpaceX星链形成竞争,KUIPER-00141的成功入轨,将助力该计划加快完成全球星座部署,推动全球宽带覆盖进程。

基本信息
目录编号:
65966
目录名称:
KUIPER-00141
国际标识:
2025-228V
轨道中心:
EARTH
卫星名称:
KUIPER-00141
卫星全名:
KUIPER-00141
卫星状态:
在轨 (已飞行140 天)
发射日期:
2025-10-14 UTC
国别 :
美国 (US)
星等 :
--
轨道信息
数据来源 国际轨道数据
星历时间: 2026-03-03T03:05:11+0800
9小时前
查看轨道信息
半长轴: 7008.296km
偏心率: 0.0001396
轨道倾角: 51.906°
近地点辐角 130.358°
升交点赤经 11.172°
平近点角 229.751°
近地点: 629.18km
远地点: 631.138km
周期: 97.315分钟
每日圈数: 14.797356
详细信息
使用方式:
暂无
2D轨道图
3D轨道图
轨道高度分析图
轨道倾角分析图
轨道综合分析图
查看轨道综合分析图